Location: San Paterniano
(43.5000°N, 13.4333°E)
Time: 11:57:18
(UTC+00:00)

Daily predictions for brighter satellites

Satellite Brightness Start Highest point End
(mag) Time Altitude Azimuth Time Altitude Azimuth Time Altitude Azimuth
Cosmos 2056 Rocket 3.6 19:19:36 10° SSW 19:24:47 89° ESE 19:30:07 10° NNE
NOSS 3-2 (A) 3.7 19:21:33 10° SW 19:27:05 74° NW 19:33:30 10° NE
NOSS 3-2 (C) 3.3 19:22:08 10° SSW 19:27:36 68° ESE 19:33:52 10° NE
SPOT 1/Viking Rocket 4.3 19:25:07 10° SE 19:29:50 38° ENE 19:34:33 10° N
Cosmos 2151 Rocket 3.8 19:26:44 10° NNW 19:31:08 72° W 19:35:30 10° S
Cosmos 407 Rocket 4.1 19:25:57 10° NNW 19:31:09 57° WSW 19:36:16 10° S
Terra 3.9 19:29:12 10° E 19:31:23 13° ENE 19:33:35 10° NNE
Resurs 01 Rocket 1.7 19:27:14 10° SSE 19:31:35 66° ENE 19:35:58 10° N
Lacrosse 5 2.2 19:26:34 10° NW 19:31:36 61° NE 19:36:37 10° ESE
Cosmos 1400 Rocket 3.7 19:31:14 10° NNW 19:34:57 46° W 19:38:39 10° S
ATLAS 3B R/B 4.1 19:32:08 10° SE 19:35:14 14° ESE 19:38:21 10° ENE
Cosmos 1953 4.2 19:33:42 10° NNE 19:36:30 18° ENE 19:39:17 10° ESE
IGS 5A 3.5 19:36:56 10° SSE 19:41:05 78° ENE 19:45:16 10° N
Spot 2 Rocket 4.4 19:37:48 10° SE 19:42:20 35° ENE 19:46:54 10° N
Cosmos 1420 Rocket 4.0 19:38:16 10° SSW 19:43:27 84° ESE 19:48:40 10° NNE
Cosmos 1975 Rocket 4.1 19:41:25 10° SSE 19:45:08 29° E 19:48:54 10° NNE
FALCON 9 DEB 4.0 19:42:50 10° SSW 19:45:50 28° SE 19:48:50 10° ENE
ERS-1 Rocket 4.2 19:44:39 10° ESE 19:48:50 27° ENE 19:53:03 10° N
Cosmos 1674 Rocket 4.3 19:49:15 10° SSW 19:53:34 54° W 19:57:53 10° N
Cosmos 1626 4.0 19:52:45 12° ESE 19:54:23 15° E 19:56:37 10° NE
SPOT 3 Rocket 3.6 19:51:57 10° SSE 19:57:06 84° WSW 20:02:20 10° NNW
Landsat 7 3.9 19:54:03 10° S 19:58:48 80° WSW 20:03:35 10° NNW
USA 215 4.2 19:55:52 10° ENE 20:00:55 23° SE 20:05:57 10° S
USA 238 DEB 4.3 19:56:26 10° SW 20:02:54 62° NW 20:09:44 10° NNE
USA 238 4.2 19:56:32 10° SW 20:03:00 62° NW 20:09:50 10° NNE
SL-16 R/B 2.2 19:58:27 10° SSW 20:04:08 89° ESE 20:09:50 10° NNE
KORONAS-FOTON 4.4 20:01:30 14° SSE 20:04:19 37° E 20:07:50 10° NNE
Cosmos 2100 Rocket 4.5 19:58:52 10° N 20:05:01 47° ENE 20:10:01 15° SE
Cosmos 2360 Rocket 2.6 20:00:36 10° S 20:05:52 42° ESE 20:11:09 10° NE
ATLAS CENTAUR R/B 3.8 20:03:18 10° N 20:06:02 16° NE 20:08:51 10° ENE
Cosmos 2322 Rocket 2.2 20:01:20 10° SSW 20:07:00 74° ESE 20:12:43 10° NNE
ARIANE 5 R/B 3.0 20:06:03 16° SE 20:09:24 50° ENE 20:13:46 10° N
Genesis I 4.0 20:06:48 10° SW 20:10:33 54° NW 20:14:26 10° NNE
CZ-2C R/B 3.8 20:07:52 10° NNE 20:12:40 88° WNW 20:17:27 10° SSW
CENTAUR R/B 3.4 20:09:03 10° WSW 20:14:50 54° NW 20:21:48 10° NNE
Meteor 1-16 Rocket 4.4 20:10:12 10° N 20:15:36 55° ENE 20:19:30 18° SSE
Cosmos 1470 3.9 20:12:30 10° NNW 20:16:17 43° W 20:20:01 10° SSW
COSMOS 2428 4.2 20:19:05 16° ESE 20:20:47 18° E 20:24:27 10° ENE
Cosmos 2173 Rocket 4.2 20:18:27 10° N 20:24:47 62° E 20:29:31 18° SSE
Cosmos 1674 2.6 20:22:25 17° S 20:25:10 69° E 20:28:52 10° NNE
Cosmos 2237 4.1 20:20:10 10° SSW 20:25:50 76° ESE 20:31:32 10° NNE
Cosmos 1315 Rocket 4.0 20:22:53 10° NNW 20:26:46 40° W 20:30:37 10° SSW
USA 81 4.3 20:22:47 10° N 20:28:02 68° W 20:33:00 11° S
Cosmos 1544 Rocket 4.2 20:24:46 10° N 20:29:02 42° ENE 20:31:23 23° SE
Cosmos 2278 Rocket 4.5 20:28:37 10° NNE 20:31:21 13° NE 20:34:04 10° ENE
H-2A R/B 4.4 20:28:02 10° NE 20:31:38 29° E 20:32:58 24° SE
Cosmos 1727 Rocket 4.3 20:27:42 10° SSW 20:34:00 70° W 20:40:18 10° N
Cosmos 1455 Rocket 3.0 20:29:36 10° N 20:34:05 80° E 20:36:54 22° SSE
Cosmos 1300 4.3 20:31:26 10° NNE 20:34:24 21° ENE 20:35:40 18° E
Cosmos 1725 Rocket 4.5 20:33:02 10° N 20:38:56 45° ENE 20:42:36 22° SE
Cosmos 1110 Rocket 3.9 20:34:52 11° S 20:39:45 69° ESE 20:44:56 10° NNE
Cosmos 1726 4.4 20:40:00 10° NW 20:42:41 20° W 20:45:23 10° SW
BREEZE-M DEB (TANK) 2.9 20:40:53 10° WSW 20:43:21 69° NNW 20:48:38 10° ENE
Cosmos 1844 Rocket 2.8 20:38:33 10° NNW 20:44:14 72° ENE 20:47:39 25° SE
Meteor 2-5 Rocket 4.4 20:42:18 23° SE 20:44:53 35° E 20:49:54 10° NNE
Cosmos 1802 Rocket 4.0 20:45:37 10° N 20:51:54 78° E 20:55:59 24° SSE
Cosmos 1908 3.3 20:48:40 10° NNW 20:52:33 72° W 20:54:25 29° S
Cosmos 1340 2.9 20:51:54 36° SE 20:53:01 49° E 20:56:40 10° NNE
Lacrosse 5 rocket 0.9 20:50:46 10° SW 20:54:25 67° SE 20:57:59 10° NE
SPOT 5 3.1 20:53:08 23° S 20:56:22 76° WSW 21:01:22 10° NNW
Cosmos 2263 Rocket 4.2 20:52:35 10° NW 20:56:35 20° W 21:00:34 10° SW
Cosmos 1536 Rocket 3.8 20:58:18 33° SSE 21:00:01 53° E 21:04:22 10° NNE
Cosmos 405 3.3 20:58:06 10° N 21:01:27 47° ENE 21:02:06 40° ESE
Cosmos 2333 4.2 20:57:59 18° S 21:02:20 67° ESE 21:08:02 10° NNE
DNEPR-1 R/B 4.4 21:00:10 10° NNW 21:04:11 41° NE 21:06:16 24° ESE
Terra 1.8 21:06:08 31° S 21:08:28 80° WSW 21:13:15 10° NNW
Resurs 01 Rocket 4.3 21:06:44 10° WSW 21:08:31 12° W 21:10:18 10° WNW
Cosmos 1459 Rocket 4.3 21:04:31 10° NNW 21:10:29 62° W 21:14:34 21° SSW
Cosmos 2333 Rocket 2.2 21:09:00 23° S 21:12:39 67° ESE 21:18:21 10° NNE
Cosmos 1025 Rocket 3.5 21:10:01 21° SSW 21:12:51 59° W 21:17:11 10° N
Cosmos 1953 3.5 21:09:16 10° NNW 21:13:01 37° W 21:15:11 21° SW
Lacrosse 5 3.3 21:10:06 10° WNW 21:14:15 26° WSW 21:16:06 21° SSW
SL-14 R/B 3.4 21:17:36 35° SSW 21:19:13 77° W 21:23:16 10° N
FALCON 9 DEB 4.5 21:19:22 10° W 21:22:37 41° NNW 21:25:53 10° NE
Cosmos 2228 3.9 21:19:24 10° N 21:23:30 36° ENE 21:24:34 32° ESE
ATLAS 3B R/B 2.5 21:18:15 10° SSW 21:24:46 80° ESE 21:31:31 10° NE
Cosmos 2061 Rocket 4.1 21:19:42 10° N 21:26:09 75° W 21:29:43 28° S
Uosat 12 SS-18 rocket 4.3 21:25:47 44° SE 21:26:21 46° ESE 21:30:57 10° NE
ERS-1 Rocket 4.0 21:24:38 21° SSW 21:27:26 38° W 21:32:09 10° NNW
Cosmos 2219 Rocket 2.1 21:24:39 27° SSW 21:27:52 76° ESE 21:33:33 10° NNE
Cosmos 1844 3.8 21:22:24 10° NNW 21:27:55 64° WSW 21:30:18 34° S
Cosmos 1626 3.6 21:27:13 19° SW 21:29:17 33° WNW 21:32:39 10° N
Cosmos 1461 3.4 21:26:14 10° NW 21:30:11 43° WSW 21:30:58 38° SSW
Meteor 1-24 Rocket 3.5 21:30:57 37° S 21:33:07 75° E 21:38:34 10° NNE
Meteor 2-10 Rocket 3.7 21:31:12 10° N 21:36:14 57° ENE 21:37:47 40° SE
Cosmos 2123 Rocket 4.4 21:34:03 20° SSW 21:38:32 61° WNW 21:44:48 10° N
BREEZE-M DEB (TANK) 4.2 21:38:15 10° WNW 21:39:08 16° W 21:39:08 16° W
SL-8 R/B 3.6 21:35:49 10° WNW 21:40:37 77° SSW 21:41:58 46° SE
BREEZE-M DEB (TANK) 2.8 21:38:31 10° W 21:41:13 56° NNW 21:47:20 10° ENE
Cosmos 2237 Rocket 3.1 21:42:20 29° ESE 21:42:57 30° ESE 21:47:45 10° NE
FALCON 9 DEB 3.8 21:44:47 40° NE 21:44:47 40° NE 21:46:55 10° NE
USA 215 3.2 21:37:56 10° NE 21:44:30 85° SE 21:51:03 10° SW
ATLAS CENTAUR R/B 1.4 21:41:03 10° NW 21:45:26 85° WSW 21:46:25 55° SSE
Cosmos 1302 Rocket 4.2 21:42:30 25° SSW 21:45:37 69° WNW 21:50:53 10° NNE
Cosmos 2058 Rocket 4.4 21:43:38 10° NNE 21:47:24 26° ENE 21:48:18 24° E
Iridium 2 4.3 21:48:10 41° E 21:48:10 41° E 21:51:38 10° NNE
Cosmos 1867 4.1 21:44:24 10° NNW 21:49:47 53° NE 21:52:15 30° ESE
Cosmos 2360 Rocket 3.9 21:44:58 10° WSW 21:49:58 32° NW 21:54:59 10° N
Cosmos 2233 Rocket 3.9 21:44:14 10° N 21:50:24 81° W 21:53:02 37° S
FALCON 9 DEB 3.8 21:53:43 43° NE 21:53:43 43° NE 21:56:00 10° NE
Cosmos 1447 Rocket 4.4 21:50:21 36° S 21:53:05 84° E 21:59:19 10° N
Spot 4 4.0 21:52:23 44° SE 21:53:39 60° ENE 21:58:22 10° N
Cosmos 1726 Rocket 3.8 21:53:26 10° N 21:57:49 54° ENE 21:58:33 48° ESE
Centaur D AC-29 4.0 21:46:20 10° W 21:58:18 20° SW 21:59:44 19° SSW
Cosmos 1455 2.8 21:58:53 10° N 22:02:34 43° ENE 22:02:38 43° E
NOSS 0 Rocket 4.0 22:01:25 41° SSE 22:03:24 60° ESE 22:09:32 10° NNE
Cosmos 389 Rocket 2.5 22:00:21 10° N 22:03:30 74° N 22:03:30 74° N
COSMOS 2428 2.9 22:01:02 26° SW 22:04:24 71° WNW 22:10:10 10° NNE
Cosmos 1300 4.2 22:06:47 10° NNW 22:10:00 26° W 22:10:36 25° WSW
Cosmos 1606 Rocket 3.5 22:07:21 10° N 22:11:51 83° W 22:12:29 65° S
ALOS 2 3.0 22:11:48 46° ESE 22:12:32 51° ENE 22:16:47 10° N
Cosmos 1892 Rocket 3.5 22:12:19 62° SE 22:12:43 67° E 22:17:08 10° NNE
COBE Rocket 4.0 22:12:19 49° SE 22:13:35 69° ENE 22:18:32 10° N
Cosmos 2278 Rocket 2.3 22:10:53 10° NNW 22:16:34 68° ENE 22:18:27 42° SE
USA 267 3.5 22:12:27 19° ESE 22:17:18 68° NE 22:23:48 10° NW
SJ 16-02 3.9 22:15:43 10° NNE 22:17:31 12° NE 22:19:18 10° ENE
Cosmos 1486 Rocket 4.0 22:14:27 10° NNW 22:19:41 74° WSW 22:20:48 54° S
Cosmos 1346 Rocket 3.3 22:19:17 45° WSW 22:19:53 50° WNW 22:23:49 10° N
SL-4 R/B 3.5 22:30:03 24° ENE 22:30:03 24° ENE 22:31:41 10° ENE
GENESIS II 4.4 22:28:59 62° ENE 22:28:59 62° ENE 22:32:23 10° NE
Cosmos 968 Rocket 4.1 22:27:50 10° NW 22:32:38 41° WSW 22:33:31 38° SW
Cosmos 1354 Rocket 4.1 22:27:16 10° NNW 22:32:38 72° ENE 22:33:59 50° SE
Lacrosse 5 rocket 3.6 22:31:00 10° WNW 22:33:47 20° NNW 22:36:33 10° NNE
Cosmos 1464 Rocket 4.0 22:27:51 10° N 22:34:15 83° E 22:36:22 45° SSE
Cosmos 1992 Rocket 4.3 22:32:39 37° SW 22:34:33 61° WNW 22:39:45 10° NNE
GEOS 3 Rocket 4.0 22:36:02 45° SSW 22:36:52 49° WSW 22:42:04 10° NW
Cosmos 1184 Rocket 3.6 22:38:30 49° N 22:38:30 49° N 22:40:59 10° N
Cosmos 2346 Rocket 4.4 22:40:51 48° S 22:42:41 82° E 22:48:52 10° N
Cosmos 1626 Rocket 4.0 22:43:28 47° ESE 22:43:39 48° E 22:47:57 10° NNE
Cosmos 1607 4.0 22:38:54 10° NNW 22:45:22 79° NE 22:47:53 39° SE
Meteor 2-1 Rocket 4.1 22:42:03 10° N 22:47:35 88° W 22:48:54 54° S
Cosmos 1703 3.2 22:49:57 82° NNW 22:49:57 82° NNW 22:53:47 10° N
Cosmos 1602 Rocket 4.3 22:49:55 40° E 22:50:08 40° E 22:54:20 10° NNE
Cosmos 1441 Rocket 3.2 22:52:52 78° NNW 22:52:52 78° NNW 22:56:31 10° N
Cosmos 1980 3.8 22:50:46 41° SW 22:52:46 72° WNW 22:58:29 10° NNE
Cosmos 1816 Rocket 4.5 22:52:10 47° SSE 22:53:56 72° E 23:00:02 10° NNE
Cosmos 192 4.3 22:54:35 60° SW 22:55:28 81° WNW 23:00:26 10° NNE
Cosmos 2333 Rocket 4.3 22:53:02 10° W 22:57:27 22° NW 23:01:53 10° N
Cosmos 1328 3.8 22:59:39 70° NE 22:59:39 70° NE 23:03:16 10° NNE
Cosmos 1943 Rocket 3.6 22:55:53 10° N 23:00:47 32° NE 23:04:20 16° ESE
BREEZE-M DEB (TANK) 2.9 22:58:43 10° WSW 23:06:02 64° NNW 23:08:46 10° ENE
Okean 1-7 Rocket 3.8 23:06:13 53° WSW 23:06:44 57° W 23:11:08 10° N
Cosmos 2034 Rocket 3.9 23:01:25 10° N 23:07:37 79° W 23:09:25 48° S
NOSS 3-1 (C) 3.7 23:09:27 39° SE 23:09:51 40° ESE 23:15:21 10° NE
Cosmos 2219 Rocket 4.4 23:08:22 10° W 23:12:28 20° NW 23:16:34 10° N
Resurs 1-4 Rocket 4.4 23:12:59 10° ENE 23:15:08 12° E 23:17:02 11° ESE
SAR-Lupe-2 4.3 23:12:14 10° N 23:15:31 46° WNW 23:15:31 46° WNW
ATLAS 3B R/B 4.4 23:10:37 10° W 23:16:11 28° NW 23:21:56 10° NNE
EO 1 Del DPAF 4.1 23:14:37 10° NNE 23:17:43 39° E 23:17:43 39° E
NOSS 3-1 (A) 4.4 23:18:53 26° ESE 23:19:16 26° ESE 23:24:02 10° ENE
Cosmos-2242 3.9 23:16:08 10° N 23:20:18 40° ENE 23:21:04 37° ESE
SL-16 R/B 2.2 23:20:20 53° SSE 23:21:30 66° ESE 23:27:08 10° NNE
USA 32 3.9 23:17:46 10° N 23:23:03 88° W 23:24:07 58° S
CZ-2D R/B 4.2 23:20:48 10° ENE 23:23:28 14° E 23:25:17 12° ESE
Cosmos 2058 Rocket 4.3 23:21:32 10° NNW 23:25:20 28° W 23:25:34 28° W
Cosmos 2237 Rocket 3.1 23:24:08 26° WSW 23:26:49 42° WNW 23:32:09 10° NNE
Cosmos 1812 Rocket 3.4 23:23:34 10° N 23:27:57 85° E 23:28:14 77° SSE
ATLAS CENTAUR R/B 3.6 23:25:37 31° WSW 23:28:38 79° NW 23:42:26 10° NE
Tsikada Rocket 4.0 23:28:42 45° SSW 23:30:40 75° W 23:36:52 10° N
SL-16 R/B 4.4 23:27:09 10° ESE 23:31:58 24° ENE 23:36:45 10° N
Cosmos 1825 4.3 23:33:53 17° E 23:34:10 18° E 23:36:44 10° NE
Thor Agena Rocket 3.8 23:29:52 10° N 23:35:03 61° WNW 23:36:27 44° SW
GP-B 3.1 23:32:13 10° N 23:36:39 67° W 23:37:02 63° WSW
Cosmos 2369 Rocket 3.6 23:34:15 10° N 23:39:28 34° NE 23:44:29 11° ESE
Meteor 1-4 Rocket 3.9 23:42:29 10° NNW 23:44:51 29° WNW 23:44:51 29° WNW
Cosmos 724 4.3 23:41:19 10° NNW 23:47:31 87° WSW 23:50:00 38° SSE
Meteor 1-11 4.4 23:52:26 43° SW 23:54:03 60° WNW 23:59:36 10° N
